This is the latest recevied weather packets stored in our database for station/object OZ0AJ-13. If no packets are shown the sender has not sent any weather packets the latest 10 day(s).
| Time | Temp. | Humidity | Pressure | Rain* | Wind** | Luminosity | Snow |
|---|---|---|---|---|---|---|---|
| 1777528216 | 6.67° C | 94% | 1032.8 hPa | 0 mm | - | - | - |
| 1777527632 | 6.11° C | 94% | 1032.8 hPa | 0 mm | - | - | - |
| 1777527029 | 5.56° C | 94% | 1032.8 hPa | 0 mm | - | - | - |
| 1777526425 | 5.56° C | 94% | 1032.8 hPa | 0 mm | - | - | - |
| 1777525821 | 5° C | 94% | 1032.9 hPa | 0 mm | - | - | - |
| 1777525217 | 5° C | 94% | 1032.9 hPa | 0 mm | - | - | - |
| 1777524633 | 4.44° C | 93% | 1032.8 hPa | 0 mm | - | - | - |
| 1777524029 | 4.44° C | 93% | 1032.7 hPa | 0 mm | - | - | - |
| 1777523426 | 4.44° C | 93% | 1032.7 hPa | 0 mm | - | - | - |
| 1777522821 | 3.89° C | 92% | 1032.7 hPa | 0 mm | - | - | - |
| 1777522218 | 3.89° C | 92% | 1032.8 hPa | 0 mm | - | - | - |
| 1777521634 | 3.89° C | 91% | 1032.9 hPa | 0 mm | - | - | - |
| 1777521030 | 3.89° C | 91% | 1032.7 hPa | 0 mm | - | - | - |
| 1777520426 | 3.89° C | 91% | 1032.7 hPa | 0 mm | - | - | - |
| 1777519822 | 3.89° C | 91% | 1032.6 hPa | 0 mm | - | - | - |
| 1777519218 | 4.44° C | 90% | 1032.6 hPa | 0 mm | - | - | - |
| 1777518634 | 4.44° C | 90% | 1032.6 hPa | 0 mm | - | - | - |
| 1777518030 | 4.44° C | 90% | 1032.7 hPa | 0 mm | - | - | - |
| 1777517427 | 4.44° C | 90% | 1032.7 hPa | 0 mm | - | - | - |
| 1777516823 | 4.44° C | 90% | 1032.7 hPa | 0 mm | - | - | - |
| 1777516219 | 4.44° C | 89% | 1032.6 hPa | 0 mm | - | - | - |
| 1777515635 | 4.44° C | 89% | 1032.6 hPa | 0 mm | - | - | - |
| 1777515031 | 4.44° C | 89% | 1032.7 hPa | 0 mm | - | - | - |
| 1777514427 | 4.44° C | 89% | 1032.7 hPa | 0 mm | - | - | - |
| 1777513824 | 5° C | 89% | 1032.6 hPa | 0 mm | - | - | - |
* Rain latest hour (hover to see other rain measurements)
** Current wind speed in m/s (hover to see current wind gust speed)